Location: Katowice
(50.2611°N, 19.0242°E)
Time: 22:53:59
(UTC+02:00)

Explorer 7 - Pass Details

Date: 01 September 2019
Orbit: 485 x 680 km, 50.3° (Epoch: 14 October)

Event Time Altitude Azimuth Distance (km) Brightness Sun altitude
Rises 08:56:59 0° 262° (W) 3,031 10.1 27.3°
Reaches altitude 10° 08:59:22 10° 262° (W) 2,110 9.4 27.6°
Maximum altitude 09:04:17 89° 172° (S) 668 7.7 28.4°
Drops below altitude 10° 09:09:01 10° 85° (E) 2,037 10.8 29.0°
Sets 09:11:18 0° 85° (E) 2,918 11.4 29.4°
